Home   Weather   Austin   Past weeks
Flag for USA

Past Weather in Austin, Texas, USA — Yesterday and Last 2 Weeks

Now
96 °F

Passing clouds.


Feels Like: 106 °F
Forecast: 94 / 75 °F
Wind: 5 mph from North

Location: Camp Mabry / Austin City

Current Time: Jul 15, 2019 at 1:40:36 pm

Latest Report: Jul 15, 2019 at 12:51 pm


Visibility: 10 mi

Pressure: 29.89 "Hg

Humidity: 47%

Dew Point: 73 °F

Location of AustinLocation

Past Weather in Austin — Graph

°F

Austin Temperature Yesterday

Maximum temperature yesterday: 98 °F (at 3:51 pm)
Minimum temperature yesterday: 79 °F (at 5:51 am)
Average temperature yesterday: 88 °F

High & Low Weather Summary for the Past Weeks

 TemperatureHumidityPressure
High98 °F (Jul 12, 5:51 pm)91% (Jul 2, 4:39 am)30.13 "Hg (Jul 2, 4:39 am)
Low72 °F (Jun 30, 12:26 pm)26% (Jul 12, 4:51 pm)29.75 "Hg (Jul 12, 6:51 pm)
Average83 °F68%29.94 "Hg
* Reported Jun 30 11:51 am — Jul 15 11:51 am, Austin. Weather by CustomWeather, © 2019

Note: Actual official high and low records may vary slightly from our data, if they occured in-between our weather recording intervals... More about our weather records

Advertising

Austin Weather History for the Previous 24 Hours

Scroll right to see more
 ConditionsComfort  
Time TempWeatherWind HumidityBarometerVisibility
11:51 am
Mon, Jul 15
91 °FSunny.No wind54%29.91 "Hg10 mi
10:51 am89 °FSunny.No wind57%29.92 "Hg10 mi
9:51 am85 °FSunny.No wind63%29.93 "Hg10 mi
8:51 am83 °FSunny.No wind68%29.92 "Hg10 mi
7:51 am79 °FSunny.3 mph74%29.91 "Hg10 mi
6:51 am78 °FSunny.3 mph74%29.90 "Hg10 mi
5:51 am78 °FClear.No wind76%29.88 "Hg10 mi
4:51 am78 °FClear.No wind79%29.87 "Hg10 mi
3:51 am78 °FClear.No wind79%29.87 "Hg10 mi
2:51 am81 °FClear.3 mph72%29.86 "Hg10 mi
1:51 am82 °FClear.No wind67%29.86 "Hg10 mi
12:51 am83 °FClear.No wind65%29.87 "Hg10 mi
11:51 pm
Sun, Jul 14
84 °FClear.3 mph61%29.88 "Hg10 mi
10:51 pm85 °FClear.5 mph59%29.87 "Hg10 mi
9:51 pm86 °FClear.5 mph59%29.85 "Hg10 mi
8:51 pm89 °FClear.5 mph50%29.84 "Hg10 mi
7:51 pm92 °FSunny.3 mph46%29.82 "Hg10 mi
6:51 pm96 °FPassing clouds.5 mph40%29.80 "Hg10 mi
5:51 pm97 °FPassing clouds.5 mph39%29.81 "Hg10 mi
4:51 pm97 °FSunny.5 mph40%29.81 "Hg10 mi
3:51 pm98 °FScattered clouds.6 mph40%29.81 "Hg10 mi
2:51 pm97 °FScattered clouds.5 mph40%29.83 "Hg10 mi
1:51 pm96 °FPassing clouds.5 mph41%29.85 "Hg10 mi
Weather by CustomWeather, © 2019

See weather overview